SL-4 DEB

Last updated on Tue Jul 23 2019 00:02:04 GMT+0000 (Coordinated Universal Time)

1 44439U 19041C 19201.93957084 .00694249 12233-4 10000-3 0 9990 2 44439 51.5972 193.6022 0023036 47.3554 48.0010 16.32998775 33

Satellite not in orbit